Wind_Speed
11 12 12 11 12 12 12 12 12 12 12 13 12 12 11 11 11 11 11 12 12 11 12 12 12 12 12 13 13 13 13 13 13 12 12 12 13 13 13 14 15 15 15
12 12 12 12 13 13 13 13 12 13 13 13 13 13 13 12 13 13 13 13 13 13 13 13 13 13 14 14 14 14 14 15 14 14 14 14 13 13 13 14 15 16 17
12 12 13 14 14 14 14 14 13 14 14 14 13 13 14 14 14 14 15 14 14 14 14 14 15 15 16 16 16 15 15 16 16 16 16 16 15 14 15 15 16 16 17
12 13 14 14 13 14 14 15 14 14 15 15 15 15 15 16 16 16 16 16 16 16 16 16 16 17 17 17 17 17 17 16 17 18 18 18 17 17 16 17 17 17 17
13 13 13 14 14 14 14 14 14 16 16 16 16 16 17 17 17 17 17 17 17 17 17 18 18 18 18 18 18 18 19 18 18 18 19 19 18 19 18 18 18 18 18
13 13 13 14 14 14 14 14 15 16 16 16 17 17 17 18 18 18 18 18 18 18 19 19 18 19 19 19 19 19 20 20 20 19 20 20 19 19 19 19 19 19 19
14 14 13 14 14 14 15 15 15 16 16 17 17 18 18 18 18 18 19 18 19 19 20 20 19 19 19 20 20 20 20 20 20 20 20 20 21 21 21 21 20 20 21
13 13 14 15 15 15 15 15 15 16 16 16 17 17 18 18 18 18 19 19 18 19 20 21 21 20 20 20 21 21 21 20 20 20 20 21 22 22 22 22 23 22 22
14 14 14 15 16 16 16 16 16 16 16 16 17 17 18 18 19 18 19 19 19 19 19 20 21 21 20 20 20 20 20 20 21 21 22 22 22 23 23 23 23 22 22
14 14 15 16 16 16 16 16 16 16 16 16 17 17 18 18 19 19 19 20 20 19 20 20 20 20 20 20 20 21 21 21 21 22 23 22 23 24 24 24 24 23 23
15 15 16 16 16 16 16 16 16 16 16 16 17 18 18 18 19 20 19 19 19 19 20 20 20 20 19 19 20 21 22 23 23 23 23 24 24 24 24 25 24 24 25
16 16 16 16 16 16 16 17 16 17 17 17 17 17 17 17 18 19 19 19 19 19 20 21 21 20 20 20 20 21 22 23 24 25 25 24 24 24 25 25 25 26 25
16 17 17 16 17 17 17 17 17 17 17 17 17 17 17 17 17 18 19 19 20 20 20 20 21 21 22 22 22 22 22 23 24 24 24 24 25 25 26 26 26 26 26
15 15 16 16 16 16 16 17 17 17 17 17 17 17 17 18 18 18 19 19 20 20 20 21 22 22 22 22 22 23 23 24 24 24 25 25 25 25 25 26 26 26 26
16 16 16 16 16 16 17 17 17 17 17 17 17 17 18 18 19 19 19 19 20 20 21 21 22 22 22 23 23 23 24 25 25 25 25 25 25 26 26 26 27 27 27
16 16 17 16 16 16 17 18 17 17 17 17 17 17 17 18 18 19 19 19 20 20 20 21 22 23 23 24 24 25 25 25 26 26 26 26 26 27 27 27 27 28 28
16 17 17 17 17 17 17 17 17 17 17 17 17 18 18 18 18 19 19 19 19 20 21 21 21 22 23 24 25 25 25 25 26 27 27 27 27 27 27 27 27 27 28
16 17 17 17 17 18 18 17 18 18 17 18 18 19 19 20 19 20 20 20 20 20 20 21 22 23 23 24 24 25 25 25 25 26 26 27 27 27 27 28 28 28 29
17 17 18 18 18 18 18 18 19 18 18 19 19 20 20 20 20 21 20 20 21 21 21 21 22 22 22 23 24 24 24 24 24 25 26 27 27 27 27 28 28 28 28
18 18 19 19 18 18 18 18 19 19 19 20 20 20 20 20 21 21 21 21 21 21 21 21 21 22 22 22 23 24 24 24 24 25 25 26 26 26 26 27 28 29 30
19 19 18 19 19 19 19 19 19 20 20 20 20 21 21 21 21 21 22 21 21 21 21 21 21 21 22 22 23 23 24 24 25 25 26 26 26 26 26 26 26 27 28
18 18 19 19 19 20 20 20 20 20 21 21 21 21 22 21 21 21 21 21 21 21 21 21 21 22 23 24 24 25 25 25 25 25 26 27 26 26 26 26 27 27 28
18 18 19 19 19 20 20 20 21 21 21 21 21 21 22 22 23 22 22 22 22 23 23 23 22 23 24 24 25 25 25 26 26 26 26 26 26 26 27 27 27 28 29
19 19 19 20 20 21 20 20 20 20 20 21 21 22 22 23 23 22 22 23 23 24 23 23 23 24 25 25 25 26 26 25 26 26 26 25 25 26 27 27 28 28 28
20 20 20 21 21 21 21 21 21 21 21 21 21 22 22 22 22 22 22 23 23 23 23 23 24 24 25 25 26 26 26 26 25 25 26 25 25 26 27 28 28 29 29
20 21 21 20 20 20 20 21 21 22 22 21 21 22 22 22 23 23 22 22 23 23 24 24 24 24 25 26 26 26 26 26 26 26 26 26 26 26 26 27 28 28 29
Wind_Direction
273 276 274 280 280 281 282 283 279 277 277 277 271 267 266 264 264 262 261 260 259 256 254 255 255 259 256 252 254 252 250 250 251 247 246 246 244 245 245 244 243 246 247
272 275 277 276 278 279 282 282 276 276 278 276 272 269 266 265 265 262 260 260 258 256 255 255 258 257 256 255 256 252 250 252 253 251 248 248 248 246 245 245 245 246 248
275 278 277 278 280 280 283 282 279 278 278 273 270 268 266 263 262 261 258 258 258 256 255 257 260 260 259 260 258 257 256 256 254 253 251 252 250 249 249 248 247 248 248
280 280 278 279 279 281 283 284 282 280 278 274 270 269 268 265 262 260 258 257 257 256 255 257 261 260 260 261 259 258 258 261 259 256 252 252 251 252 251 252 251 251 250
277 278 279 280 280 281 283 285 284 282 281 277 272 269 268 266 263 260 258 258 256 258 257 259 261 262 262 260 258 257 257 260 259 258 254 252 253 254 254 253 253 254 254
276 277 280 281 280 280 281 285 287 283 280 276 272 271 269 266 263 260 259 259 258 260 260 261 261 261 261 258 258 257 257 258 256 256 257 255 254 254 255 256 254 254 254
273 276 279 282 281 281 283 286 284 282 278 275 272 271 270 265 261 260 260 259 259 260 261 261 261 261 260 258 258 259 259 257 258 259 258 256 255 255 256 257 257 256 255
269 272 278 282 281 281 284 284 283 280 277 273 272 272 271 266 262 262 261 260 259 259 261 259 259 260 261 259 258 257 258 259 260 260 260 259 255 256 258 259 257 257 256
272 271 275 279 281 282 283 283 283 281 277 275 276 275 270 266 263 263 264 263 262 261 259 259 260 262 260 258 258 258 259 259 261 261 261 262 259 258 260 260 260 258 256
270 271 275 281 282 281 282 283 281 281 278 278 278 276 273 268 263 261 261 263 264 263 262 264 264 264 262 263 261 258 258 259 260 261 261 262 262 261 261 262 262 260 258
270 273 276 281 284 283 282 281 280 280 279 278 278 278 275 270 267 263 261 263 263 263 263 263 264 264 264 264 263 260 259 260 261 261 261 261 262 262 261 262 262 261 259
274 276 276 279 283 285 282 281 281 280 280 281 280 278 276 272 270 266 263 263 263 263 263 261 263 263 263 262 263 263 261 260 261 262 263 263 263 263 262 263 263 262 260
276 275 276 279 283 285 282 281 283 282 281 282 279 276 275 271 269 269 265 264 264 264 265 264 263 263 263 262 262 263 263 262 262 262 263 264 264 264 262 262 262 262 260
277 276 277 280 282 284 282 282 284 283 281 281 279 275 273 270 268 268 268 267 267 267 267 267 266 267 267 266 266 266 266 267 266 264 263 264 264 264 263 263 262 261 260
275 276 279 281 283 284 283 282 285 283 281 281 279 277 273 270 269 270 271 271 271 270 269 270 269 269 269 268 268 267 268 268 267 265 264 265 265 265 265 263 262 262 261
275 277 279 280 281 283 284 282 284 283 282 281 280 281 279 273 271 271 272 274 274 272 271 272 270 268 269 269 268 268 267 267 267 267 266 266 267 268 266 263 262 262 262
274 278 282 280 280 282 286 283 280 281 282 283 282 282 281 278 275 273 274 275 275 274 272 271 270 269 269 269 269 270 271 270 269 269 268 268 268 268 265 264 262 262 261
277 278 281 282 281 280 283 284 281 282 283 282 283 283 283 281 277 274 274 273 273 274 274 271 270 270 270 270 271 272 271 272 270 268 268 268 268 268 266 264 263 262 260
278 278 280 282 283 283 285 284 284 282 283 284 284 283 283 282 277 274 273 273 273 273 273 273 272 273 273 273 273 272 271 272 272 271 270 269 269 269 269 266 263 262 261
277 279 280 282 283 283 284 285 287 285 284 284 284 282 281 281 278 274 273 273 274 274 274 275 276 274 275 276 276 275 274 274 275 274 273 272 271 270 270 268 265 263 262
279 281 280 282 284 284 284 284 285 285 284 284 284 283 281 280 278 276 274 274 275 275 276 275 276 277 277 277 277 276 275 277 277 277 275 274 274 270 268 267 265 264 263
280 282 283 284 285 286 285 284 285 284 285 284 284 283 281 280 278 276 275 276 276 277 276 275 275 276 276 277 278 276 276 278 278 278 277 275 273 269 269 269 268 266 264
279 282 283 284 286 288 287 286 285 285 285 284 283 282 280 278 277 275 275 275 276 277 276 274 274 275 276 278 279 279 279 279 279 279 278 276 272 269 270 270 269 268 265
276 279 282 284 285 286 286 287 287 287 285 283 283 282 281 280 278 276 276 275 275 276 276 275 275 276 279 280 280 280 280 280 280 279 279 278 274 271 271 271 270 268 266
275 277 280 283 284 285 285 285 286 286 284 283 282 281 280 279 278 278 278 277 277 276 277 276 277 279 280 281 281 280 281 281 279 279 280 278 274 273 273 272 270 269 268
277 279 280 280 280 282 284 284 285 285 284 283 284 282 279 279 279 278 279 279 278 277 277 277 279 279 279 280 281 280 281 281 280 280 280 279 277 275 275 275 272 270 269
Height
5854 5853 5853 5853 5853 5853 5854 5854 5854 5854 5854 5854 5854 5855 5855 5856 5857 5857 5858 5858 5859 5860 5860 5861 5862 5863 5864 5864 5865 5866 5867 5868 5869 5870 5871 5872 5873 5874 5875 5877 5878 5879 5880
5851 5851 5851 5851 5850 5850 5850 5850 5850 5851 5851 5851 5851 5852 5852 5853 5853 5854 5855 5856 5856 5857 5858 5859 5859 5860 5861 5862 5862 5863 5864 5865 5866 5867 5868 5869 5870 5871 5872 5873 5875 5876 5877
5848 5848 5848 5848 5847 5847 5847 5847 5847 5847 5847 5847 5848 5848 5849 5849 5850 5851 5851 5852 5853 5854 5855 5855 5856 5857 5858 5858 5859 5860 5861 5862 5863 5864 5865 5866 5867 5868 5869 5870 5871 5872 5873
5845 5845 5845 5844 5844 5844 5843 5843 5843 5843 5843 5843 5844 5844 5845 5845 5846 5847 5847 5848 5849 5850 5851 5851 5852 5853 5854 5855 5855 5856 5857 5858 5859 5860 5861 5862 5863 5864 5865 5866 5867 5868 5869
5842 5842 5842 5841 5841 5840 5840 5840 5839 5839 5839 5839 5840 5840 5840 5841 5842 5842 5843 5844 5845 5845 5846 5847 5848 5849 5850 5851 5851 5852 5853 5854 5855 5856 5857 5858 5859 5860 5861 5862 5863 5864 5865
5838 5838 5838 5838 5837 5837 5837 5836 5835 5835 5835 5835 5835 5836 5836 5836 5837 5838 5839 5839 5840 5841 5842 5843 5843 5844 5845 5846 5847 5848 5849 5850 5851 5851 5852 5853 5854 5856 5857 5858 5859 5860 5861
5835 5835 5835 5835 5834 5834 5833 5833 5832 5831 5831 5831 5831 5831 5831 5831 5832 5833 5834 5834 5835 5836 5837 5838 5838 5839 5840 5841 5842 5843 5844 5845 5846 5847 5847 5849 5850 5851 5852 5853 5854 5855 5856
5831 5831 5831 5831 5831 5830 5829 5829 5828 5827 5827 5827 5827 5827 5827 5828 5827 5828 5829 5829 5830 5831 5832 5832 5833 5834 5834 5835 5837 5837 5838 5839 5840 5841 5842 5843 5844 5846 5847 5847 5848 5849 5851
5827 5828 5828 5827 5827 5826 5825 5825 5824 5824 5823 5823 5823 5823 5822 5823 5823 5824 5824 5825 5825 5826 5826 5827 5827 5828 5829 5830 5831 5832 5833 5834 5835 5836 5837 5838 5839 5840 5841 5842 5843 5844 5845
5824 5824 5824 5823 5823 5822 5821 5821 5820 5819 5819 5819 5818 5818 5818 5818 5819 5819 5820 5820 5820 5820 5821 5822 5822 5823 5823 5824 5825 5826 5827 5829 5829 5830 5831 5832 5833 5834 5835 5836 5837 5838 5839
5820 5820 5820 5819 5819 5818 5817 5817 5816 5816 5815 5814 5814 5814 5813 5813 5814 5814 5815 5815 5815 5815 5816 5816 5817 5817 5818 5818 5819 5820 5821 5822 5823 5824 5825 5826 5827 5828 5829 5830 5830 5831 5832
5816 5816 5816 5815 5815 5814 5813 5813 5812 5812 5811 5810 5810 5809 5809 5809 5809 5809 5810 5810 5810 5811 5811 5811 5811 5812 5812 5813 5814 5814 5815 5816 5817 5818 5819 5820 5820 5821 5822 5823 5824 5825 5826
5812 5812 5811 5811 5810 5810 5809 5809 5808 5807 5807 5806 5805 5805 5805 5805 5805 5805 5805 5805 5805 5805 5805 5805 5806 5806 5807 5807 5808 5808 5809 5810 5811 5811 5812 5813 5814 5815 5815 5816 5817 5818 5819
5808 5807 5807 5807 5806 5806 5805 5804 5803 5803 5802 5801 5801 5800 5800 5800 5800 5800 5800 5799 5800 5800 5800 5800 5800 5800 5801 5801 5801 5802 5802 5803 5804 5805 5806 5806 5807 5808 5808 5809 5810 5811 5812
5804 5804 5803 5803 5802 5801 5801 5800 5799 5798 5797 5797 5796 5796 5795 5795 5795 5795 5794 5794 5794 5794 5795 5795 5795 5794 5794 5795 5795 5795 5796 5796 5797 5798 5799 5799 5800 5801 5801 5802 5803 5803 5805
5800 5799 5799 5798 5797 5797 5796 5796 5795 5794 5793 5792 5792 5791 5790 5790 5789 5789 5789 5789 5788 5789 5789 5789 5789 5789 5788 5788 5789 5789 5789 5790 5790 5790 5791 5792 5792 5793 5793 5794 5795 5796 5797
5795 5795 5794 5793 5793 5792 5791 5790 5790 5789 5788 5788 5787 5786 5785 5784 5784 5784 5783 5783 5783 5783 5783 5783 5782 5782 5782 5782 5782 5782 5782 5782 5782 5782 5783 5783 5784 5785 5785 5786 5787 5787 5788
5790 5790 5789 5789 5788 5787 5786 5785 5785 5784 5784 5783 5782 5781 5780 5779 5779 5778 5778 5778 5777 5777 5777 5777 5776 5776 5776 5776 5775 5775 5775 5775 5775 5775 5775 5776 5776 5776 5777 5778 5778 5779 5780
5786 5785 5785 5784 5783 5783 5781 5781 5780 5779 5779 5778 5777 5776 5775 5774 5773 5773 5772 5772 5772 5771 5771 5771 5770 5770 5769 5769 5769 5768 5768 5768 5768 5767 5768 5768 5768 5768 5769 5769 5769 5770 5771
5781 5780 5780 5779 5778 5777 5776 5776 5775 5774 5773 5772 5771 5770 5769 5768 5767 5767 5766 5766 5766 5765 5765 5764 5764 5763 5763 5762 5762 5762 5761 5761 5761 5760 5760 5760 5760 5760 5760 5760 5761 5762 5762
5776 5775 5774 5774 5773 5772 5771 5770 5769 5768 5767 5766 5765 5764 5763 5762 5761 5761 5760 5760 5759 5759 5758 5758 5758 5757 5757 5756 5756 5755 5754 5754 5753 5753 5753 5752 5752 5752 5752 5752 5752 5753 5754
5770 5770 5769 5768 5767 5766 5765 5764 5763 5762 5761 5760 5759 5758 5757 5756 5755 5755 5754 5754 5753 5753 5752 5752 5752 5751 5751 5750 5749 5748 5748 5747 5747 5746 5745 5745 5744 5744 5744 5744 5745 5745 5746
5765 5764 5763 5762 5761 5760 5759 5758 5756 5755 5754 5753 5753 5752 5751 5750 5749 5748 5748 5747 5747 5746 5746 5746 5745 5745 5744 5743 5742 5742 5741 5740 5739 5738 5737 5737 5736 5736 5736 5736 5736 5737 5737
5759 5758 5758 5756 5755 5754 5753 5752 5750 5749 5748 5747 5746 5745 5745 5744 5743 5742 5741 5741 5740 5740 5739 5739 5738 5738 5737 5736 5735 5734 5733 5732 5731 5730 5729 5729 5729 5728 5728 5728 5728 5728 5728
5753 5752 5751 5750 5749 5748 5746 5745 5744 5743 5742 5741 5740 5739 5738 5737 5737 5736 5735 5734 5734 5733 5732 5732 5731 5731 5730 5729 5727 5727 5726 5725 5724 5723 5722 5721 5721 5721 5720 5719 5719 5719 5719
5747 5746 5744 5744 5742 5741 5740 5739 5738 5737 5736 5735 5734 5732 5731 5730 5730 5729 5728 5728 5727 5727 5726 5725 5724 5723 5722 5721 5720 5719 5718 5718 5717 5716 5715 5714 5714 5713 5713 5712 5711 5710 5711